Regional Weather Roundup
Issued by NWS New Orleans/Baton Rouge, LA

Home | Current Version | Previous Version | Text Only | Print | Product List | Glossary On
Versions: 1 2 3 4 5 6 7 8 9 10 11 12 13 14 15 16 17 18 19 20 21 22 23 24 25 26 27 28 29 30 31 32 33 34 35 36 37 38 39 40 41 42 43 44 45 46 47 48 49 50
159
ASUS44 KLIX 061501
RWRLIX
NEW ORLEANS REGIONAL WEATHER ROUNDUP
NATIONAL WEATHER SERVICE NEW ORLEANS LA
900 AM CST FRI MAR 06 2015

NOTE: "FAIR" INDICATES FEW OR NO CLOUDS BELOW 12,000 FEET WITH NO
      SIGNIFICANT WEATHER AND/OR OBSTRUCTIONS TO VISIBILITY.
      SKY/WX - SKY CONDITION AND SIGNIFICANT WEATHER.
      TMP - AIR TEMPERATURE.     DP    - DEWPOINT TEMPERATURE.
      RH  - RELATIVE HUMIDITY.   PRES  - PRESSURE.
      HI  - HEAT INDEX.          WCI   - WIND CHILL INDEX.

*  THESE STATIONS ARE NOT NWS OR FAA STATIONS AND ARE NOT UNDER
   NWS QUALITY CONTROL.

LAZ038-040-048-061>063-065>067-069-061600-
SOUTHEAST LOUISIANA

CITY           SKY/WX    TMP DP  RH WIND       PRES   REMARKS
N.O. AUDUBON     N/A     39  28  62 MISG        N/A
N.O. INTL ARPT PTSUNNY   36  23  59 N13G23    30.51R WCI  27
N.O. LAKEFRONT SUNNY     38  23  55 N18       30.51R WCI  28
SLIDELL        SUNNY     35  19  52 N10       30.50R WCI  27
BATON ROUGE    SUNNY     33  14  45 N10       30.56R WCI  25
BOOTHVILLE     NOT AVBL
BELLE CHASSE   NOT AVBL
BOGALUSA*        N/A     34  20  57 N9G18     30.54S WCI  26
GALLIANO*      SUNNY     40  28  61 N13G26    30.48R WCI  33
NEW ROADS*     NOT AVBL
GONZALES*      NOT AVBL
HAMMOND*       NOT AVBL
HOUMA*         MOSUNNY   36  25  64 N13G21    30.50R WCI  27
PORT FOURCHON* SUNNY     37  25  60 NE18      30.50R WCI  27

$$

MSZ070-080>082-061600-
SOUTHERN MISSISSIPPI

CITY           SKY/WX    TMP DP  RH WIND       PRES   REMARKS
MCCOMB         SUNNY     30  14  51 N9        30.55R WCI  22
GULFPORT       SUNNY     34  18  52 N17       30.47R WCI  23
BILOXI         SUNNY     35  19  51 N16G23    30.46R WCI  25
PASCAGOULA     SUNNY     36  20  52 N17       30.46R WCI  26
STENNIS ARPT*  SUNNY     34  14  44 N14G21    30.50R WCI  24

$$

COASTAL OBSERVATIONS
LAKE AND NEARSHORE STATIONS

STATION/POSITION TIME  TEMP    WIND        PRES    WAVE
                       AIR SEA DIR/SP/G            HT/PER
                 (UTC) (F)     (DEG/KT/KT) (MB)    (FT/S)
PASCAGOULA       1423   32     360/ 13/ 19 1030.3
WAVELAND YACHT   1423   31 45  360/ 16/ 20 1031.4
GRAND ISLE       1423   36 54   10/ 16/ 21 1031.8
SOUTHWEST PASS   1423   41 42   10/ 18/ 22 1030.6
NEW CANAL        1423   33      10/ 16/ 19 1032.7
SHELL BEACH      1423   33 52  360/ 18/ 23 1031.5

OFFSHORE STATIONS

STATION/POSITION TIME  TEMP    WIND        PRES    WAVE
                       AIR SEA DIR/SP/G            HT/PER
                 (UTC) (F)     (DEG/KT/KT) (MB)    (FT/S)
64 S DAUPHIN ISL 1355   44 67   10/ 17/ 23 1029.9    7/ 7

$$




USA.gov is the U.S. government's official web portal to all federal, state and local government web resources and services.